Regional Weather Roundup
Issued by NWS Upton, NY

Home | Current Version | Previous Version | Text Only | Print | Product List | Glossary On
Versions: 1 2 3 4 5 6 7 8 9 10 11 12 13 14 15 16 17 18 19 20 21 22 23 24 25 26 27 28 29 30 31 32 33 34 35 36 37 38 39 40 41 42 43 44 45 46 47 48 49 50
000
ASUS41 KOKX 291105
RWROKX

REGIONAL WEATHER ROUNDUP
NATIONAL WEATHER SERVICE NEW YORK NY
600 AM EST MON DEC 29 2014

NOTE: "FAIR" INDICATES FEW OR NO CLOUDS BELOW 12,000 FEET WITH NO
SIGNIFICANT WEATHER AND/OR OBSTRUCTIONS TO VISIBILITY.

NYZ071-072-176-178-NJZ106-104-291200-
NEW YORK CITY METRO AREA


CITY           SKY/WX    TMP DP  RH WIND       PRES   REMARKS
CENTRAL PARK   PTCLDY    38  22  52 VRB3      30.17R
LAGUARDIA APRT PTCLDY    39  23  52 NW9       30.15R WCI  33
KENNEDY INTL   CLOUDY    39  22  50 N8        30.16R WCI  33
NEWARK/LIBERTY MOCLDY    37  23  56 NW6       30.15S WCI  32
BRNX BOT. GARD   N/A    N/A N/A N/A NW6       30.16S
TETERBORO      PTCLDY    37  24  59 NW3       30.15R
$$

NYZ177-179-078>081-291200-
LONG ISLAND NEW YORK

CITY           SKY/WX    TMP DP  RH WIND       PRES   REMARKS
FARMINGDALE    CLOUDY    38  23  55 NW5       30.15R WCI  34
ISLIP          CLOUDY    36  26  67 W3        30.13R
SHIRLEY        CLOUDY    34  24  67 CALM      30.15R
WESTHAMPTON    CLOUDY    33  22  63 CALM      30.15R
MONTAUK POINT    N/A     40  25  55 NW12      30.14R WCI  33
$$

NYZ052-065-067-291200-
HUDSON VALLEY

CITY           SKY/WX    TMP DP  RH WIND       PRES   REMARKS
WHITE PLAINS   PTCLDY    32  23  69 NW7       30.12R WCI  26
NEWBURGH       CLEAR     30  25  80 W12       30.13S WCI  21
MONTGOMERY     PTCLDY    28  23  81 S5        30.13R WCI  23
POUGHKEEPSIE   PTCLDY    28  24  85 E6        30.13R WCI  22
ALBANY         PTCLDY    32  24  72 N3        30.13R
$$

NJZ001-105-106-008-010-013-015-019>022-104-291200-
NEW JERSEY

CITY           SKY/WX    TMP DP  RH WIND       PRES   REMARKS
NEWARK/LIBERTY MOCLDY    37  23  56 NW6       30.15S WCI  32
TETERBORO      PTCLDY    37  24  59 NW3       30.15R
CALDWELL       PTCLDY    32  23  69 CALM      30.15R
MORRISTOWN     PTCLDY    32  27  80 CALM      30.15R
SOMERVILLE     PTCLDY    30  24  78 CALM      30.14R
SUSSEX         PTCLDY    26  23  88 CALM      30.13S
ANDOVER        NOT AVBL
TRENTON        MOCLDY    37  23  56 CALM      30.15R
MILLVILLE      CLOUDY    41  30  65 N13       30.15R
ATLANTIC CITY  CLOUDY    40  33  76 N8        30.15R WCI  34
WRIGHTSTOWN    CLOUDY    36  27  69 N3        30.14R
TOMS RIVER     CLOUDY    39  25  56 N6        30.16R WCI  35
BELMAR         CLOUDY    39  21  48 NW8       30.15R WCI  34
$$

PAZ047>061-062-071-291200-
EASTERN PENNSYLVANIA

CITY           SKY/WX    TMP DP  RH WIND       PRES   REMARKS
PHILADELPHIA   CLOUDY    40  24  53 N8        30.17R WCI  34
ALLENTOWN      PTCLDY    32  22  66 CALM      30.16R
SCRANTON       MOCLDY    32  22  66 W10       30.13S WCI  24
$$

CTZ002-004>006-009-010-012-RIZ004-006-007-MAZ004-011-015-291200-
SOUTHERN NEW ENGLAND
 IN CT

CITY           SKY/WX    TMP DP  RH WIND       PRES   REMARKS
BRADLEY INTL   MOCLDY    32  23  69 W3        30.11R
HARTFORD       PTCLDY    26  22  84 SE7       30.13R WCI  18
DANBURY        CLEAR     26  21  81 CALM      30.13R
WTRBRY/OXFORD  CLEAR     28  18  64 CALM      30.12R
BRIDGEPORT     MOCLDY    31  24  75 CALM      30.15R
MERIDEN        CLEAR     26  23  88 CALM      30.14R
NEW HAVEN      PTCLDY    38  24  57 CALM      30.14R
CHESTER        FAIR      34  23  64 NW3       30.12R
GROTON         PTCLDY    33  24  69 W5        30.13R WCI  29
WILLIMANTIC    CLEAR     27  23  85 CALM      30.12R

 IN RI

CITY           SKY/WX    TMP DP  RH WIND       PRES   REMARKS
PROVIDENCE     MOCLDY    33  22  63 W6        30.12R WCI  28
BLOCK ISLAND   CLOUDY    37  23  56 N9G16     30.11S WCI  31
WESTERLY       PTCLDY    33  24  69 CALM      30.13R

 IN MA

CITY           SKY/WX    TMP DP  RH WIND       PRES   REMARKS
BOSTON         PTCLDY    36  22  56 W7        30.10R WCI  30
WORCESTER      FAIR      26  20  77 SW7       30.06R WCI  18
WESTFIELD      MOCLDY    34  23  64 VRB5      30.10R WCI  30
PROVINCETOWN   PTCLDY    37  25  60 NW12G18   30.09R WCI  30
NANTUCKET      CLOUDY    38  27  64 NW13G21   30.09R WCI  30
$$

ANZ330-335-338-340-345-350-353-355-291200-
COASTAL MARINE OBSERVATIONS


STATION/POSITION TIME  SKY/WX   TEMP    WIND        PRES    VSBY  WAVE
                                AIR SEA DIR/SP/G                  HT/PER
                 (UTC)          (F)     (DEG/KT/KT) (MB)    (MI)  (FT/S)
NY HARB ENTRANCE 1100            41 45  330/ 16/ 19 1021.0          3/ 6
4S FIRE IS       1100               47                N/A           2/ 6
20S FIRE ISLAND  1000            43 49              1020.1          3/ 4
23SW MTP         1100                                 N/A           4/ 7
HUDSON CANYON    1100            45 55  360/ 14/ 17 1019.4          4/ 5
EXECUTION ROCKS  1100            38 42  320/  8/ 10   N/A
WESTERN LI SOUND 1100            39     310/ 10/ 14   N/A           0
CENTRAL LI SOUND 1000            40 44  310/ 12/ 14   N/A           1/ 2
EASTERN LI SOUND NOT AVBL
ROBBINS REEF     1100            39                 1019.9
$$


>>>>>>>>>>>>>>>>>>>>>>>>>>>> KEY <<<<<<<<<<<<<<<<<<<<<<<<<<<
>                                                          <
>     SKY/WX - SKY CONDITION/PRESENT WEATHER               <
>     TMP    - TEMPERATURE IN FAHRENHEIT                   <
>     DP     - DEWPOINT IN FAHRENHEIT                      <
>     RH     - RELATIVE HUMIDITY IN PERCENT                <
>     WIND   - DIRECTION AND SPEED IN MPH                  <
>     PRES   - MEAN SEA LEVEL PRESSURE IN INCHES OF HG     <
>     WCI    - WIND CHILL INDEX                            <
>     VSB    - VISIBILITY IN MILES                         <
>     HX     - HEAT INDEX                                  <
>     TC     - TEMPERATURE IN CELSIUS                      <
>     VRB    - VARIABLE WIND DIRECTION                     <
>                                                          <
>>>>>>>>>>>>>>>>>>>>>>>>>>>> KEY <<<<<<<<<<<<<<<<<<<<<<<<<<<




USA.gov is the U.S. government's official web portal to all federal, state and local government web resources and services.